GW0796 Weather Reports


Display with metric or nautical units.
time (UTC)temp
F
wind
direction
speed
MPH
gust
MPH
rain 1hr
in
rain 24hr
in
rain mn
in
humidity
%
barometer
mb
20260502130121 37 0 0.0 1.0 0.00 0.00 0.00 74 1018.7
20260502123126 33 0 0.0 1.0 0.00 0.00 0.00 80 1018.8
20260502121604 31 0 0.0 1.0 0.00 0.00 0.00 82 1018.8
20260502120127 30 0 0.0 0.0 0.00 0.00 0.00 82 1018.9
20260502114600 29 30 0.0 0.0 0.00 0.00 0.00 82 1018.8
20260502113100 29 0 0.0 0.0 0.00 0.00 0.00 83 1018.9
20260502111558 29 0 0.0 0.0 0.00 0.00 0.00 84 1018.8
20260502110057 29 0 0.0 0.0 0.00 0.00 0.00 86 1018.9
20260502104557 28 0 0.0 0.0 0.00 0.00 0.00 87 1019.1
20260502103058 27 0 0.0 0.0 0.00 0.00 0.00 88 1019.1
20260502101605 26 0 0.0 0.0 0.00 0.00 0.00 88 1019.2
20260502064558 30 0 0.0 1.0 0.00 0.00 0.00 87 1019.4
20260502063101 30 0 0.0 0.0 0.00 0.00 0.00 88 1019.5
20260502061559 29 0 0.0 0.0 0.00 0.00 0.00 87 1019.5
20260502060119 29 0 0.0 0.0 0.00 0.00 0.00 84 1019.8
20260502054600 30 0 0.0 0.0 0.00 0.00 0.00 83 1019.8
20260502053059 30 0 0.0 0.0 0.00 0.00 0.00 84 1019.9
20260502051602 30 0 0.0 0.0 0.00 0.00 0.00 85 1019.9
20260502050057 30 0 0.0 0.0 0.00 0.00 0.00 85 1019.8
20260502044600 30 0 0.0 0.0 0.00 0.00 0.00 86 1019.8
20260502043119 30 0 0.0 0.0 0.00 0.00 0.00 85 1019.8
20260502041559 30 0 0.0 0.0 0.00 0.00 0.00 83 1019.9
20260502040107 31 0 0.0 0.0 0.00 0.00 0.00 80 1019.9
20260502034605 32 0 0.0 0.0 0.00 0.00 0.00 78 1019.9
20260502033106 33 0 0.0 0.0 0.00 0.00 0.00 78 1019.7
20260502031609 34 0 0.0 0.0 0.00 0.00 0.00 71 1019.7
20260502030108 37 0 0.0 0.0 0.00 0.00 0.00 67 1019.6
20260502024611 37 0 0.0 0.0 0.00 0.00 0.00 66 1019.5
20260502023059 38 0 0.0 0.0 0.00 0.00 0.00 64 1019.3
20260502021606 39 0 0.0 0.0 0.00 0.00 0.00 62 1019.2
20260502020105 41 0 0.0 0.0 0.00 0.00 0.00 58 1019.0
20260502014558 43 0 0.0 0.0 0.00 0.00 0.00 54 1018.9
20260502013103 45 0 0.0 1.0 0.00 0.00 0.00 52 1018.9
20260502011601 46 55 0.0 2.0 0.00 0.00 0.00 50 1018.9
20260502010106 48 34 0.0 4.0 0.00 0.00 0.00 47 1018.8
20260502004608 49 0 1.0 7.0 0.00 0.01 0.00 42 1018.7
20260502003106 50 352 0.0 5.0 0.00 0.01 0.00 44 1018.6
20260502001557 50 63 3.0 8.0 0.00 0.01 0.00 41 1018.5
20260502000111 50 41 2.0 7.0 0.00 0.01 0.00 42 1018.5
20260501234558 51 4 4.0 8.0 0.00 0.01 0.00 42 1018.6
20260501233058 50 350 3.0 9.0 0.00 0.01 0.00 40 1018.5
20260501231558 51 343 3.0 9.0 0.00 0.01 0.00 41 1018.6
20260501230059 51 307 2.0 18.0 0.00 0.01 0.00 40 1018.6
20260501224557 51 359 4.0 9.0 0.00 0.01 0.00 41 1018.6
20260501223106 51 35 3.0 11.0 0.00 0.01 0.00 42 1018.5
20260501221601 51 34 5.0 12.0 0.00 0.01 0.00 42 1018.5
20260501220103 51 352 2.0 13.0 0.00 0.01 0.00 46 1018.5
20260501214559 50 47 1.0 7.0 0.00 0.01 0.00 44 1018.6
20260501213058 49 296 4.0 9.0 0.00 0.01 0.00 46 1018.5
20260501211614 50 35 4.0 13.0 0.00 0.01 0.00 43 1018.6
20260501210059 51 25 4.0 11.0 0.00 0.01 0.00 44 1018.8
20260501204600 50 33 2.0 7.0 0.00 0.01 0.00 45 1018.7
20260501203059 50 347 6.0 12.0 0.00 0.01 0.00 45 1019.1
20260501201600 49 333 3.0 9.0 0.00 0.01 0.00 47 1019.1
20260501200059 49 349 4.0 10.0 0.00 0.01 0.00 45 1019.1
20260501194601 49 12 5.0 10.0 0.00 0.01 0.00 45 1019.3
20260501193119 50 0 3.0 10.0 0.00 0.01 0.00 50 1019.1
20260501191601 48 40 2.0 9.0 0.00 0.01 0.00 52 1019.3
20260501190129 48 351 4.0 9.0 0.00 0.01 0.00 47 1019.3
20260501184612 49 79 5.0 11.0 0.00 0.01 0.00 47 1019.2
20260501183100 48 55 4.0 14.0 0.00 0.01 0.00 53 1019.2
20260501181557 47 19 6.0 11.0 0.00 0.01 0.00 52 1019.3
20260501180115 47 349 3.0 12.0 0.00 0.01 0.00 51 1019.2
20260501174559 46 340 6.0 11.0 0.00 0.01 0.00 51 1019.2
20260501173100 46 11 6.0 12.0 0.00 0.01 0.00 52 1019.4
20260501171559 44 11 4.0 10.0 0.00 0.01 0.00 55 1019.4
20260501170109 45 285 3.0 14.0 0.00 0.01 0.00 55 1019.5
20260501164556 45 32 5.0 10.0 0.00 0.01 0.00 57 1019.4
20260501163100 45 56 4.0 11.0 0.00 0.01 0.00 57 1019.5
20260501161601 44 34 4.0 12.0 0.00 0.01 0.00 56 1019.5
20260501160108 43 6 5.0 12.0 0.00 0.01 0.00 56 1019.3
20260501154609 43 43 5.0 12.0 0.00 0.01 0.00 59 1019.2
20260501153059 42 353 2.0 11.0 0.00 0.01 0.00 58 1019.3
20260501151606 42 42 4.0 12.0 0.00 0.01 0.00 55 1019.3
20260501150058 41 48 4.0 10.0 0.00 0.01 0.00 59 1019.3
20260501144601 40 347 4.0 11.0 0.00 0.01 0.00 59 1019.3
20260501143104 40 352 6.0 12.0 0.00 0.01 0.00 58 1019.4